Location: Bamobli
(6.6379°N, 10.9396°W)
Time: 21:43:54
(UTC+00:00)

Envisat - Pass Details

Date: 09 March 2021
Orbit: 764 x 766 km, 98.1° (Epoch: 12 April)

Event Time Altitude Azimuth Distance (km) Brightness Sun altitude
Rises 04:48:41 0° 52° (NE) 3,217 6.9 -31.7°
Reaches altitude 10° 04:53:59 10° 99° (E) 2,294 6.4 -30.4°
Maximum altitude 04:54:08 10° 101° (E) 2,293 6.3 -30.3°
Drops below altitude 10° 04:54:16 10° 102° (ESE) 2,293 6.3 -30.3°
Sets 04:59:34 0° 149° (SSE) 3,221 6.6 -29.0°
